Location: Unspecified
(48.8656°N, 0.0000°E)
Time: 16:11:10
(UTC+00:00)

SR - Pass Details

Date: 01 July 2019
Orbit: 578 x 878 km, 66.7° (Epoch: 21 August)

Event Time Altitude Azimuth Distance (km) Brightness Sun altitude
Rises 00:48:06 0° 181° (S) 2,780 - -17.3°
Reaches altitude 10° 00:50:34 10° 168° (SSE) 1,887 - -17.2°
Exits shadow 00:52:44 22° 141° (SE) 1,308 ? -17.2°
Maximum altitude 00:54:02 25° 112° (ESE) 1,191 ? -17.1°
Drops below altitude 10° 00:57:36 10° 57° (ENE) 1,948 ? -17.0°
Sets 01:00:11 0° 44° (NE) 2,891 ? -16.9°
